Regional Weather Roundup
Issued by NWS

Home | Current Version | Previous Version | Graphics & Text | Print | Product List | Glossary On
Versions: 1 2 3 4 5 6 7 8 9 10 11 12 13 14 15 16 17 18 19 20 21 22 23 24 25 26 27 28 29 30 31 32 33 34 35 36 37 38 39 40 41 42 43 44 45 46 47 48 49 50
000
ASUS43 KIND 231809
RWRIN

WEATHER ROUNDUP FOR INDIANA
NATIONAL WEATHER SERVICE INDIANAPOLIS IN
200 PM EDT WED MAY 23 2018

NOTE: "FAIR" INDICATES FEW OR NO CLOUDS BELOW 12,000 FEET WITH NO
SIGNIFICANT WEATHER AND/OR OBSTRUCTIONS TO VISIBILITY.

* - STATION DOES NOT REPORT WEATHER SUCH AS PRECIPITATION OR FOG.

+ - STATION NOT QUALITY CONTROLLED BY THE NATIONAL WEATHER SERVICE.
    USE DATA WITH CAUTION...ESPECIALLY DEWPOINT AND RELATIVE
    HUMIDITY OBSERVATIONS.

INZ001>003-010>013-019-020-231900-
NORTHWEST INDIANA

CITY           SKY/WX    TMP DP  RH WIND       PRES   REMARKS
GARY /AIRPORT/ MOSUNNY   70  57  64 VRB5      30.22S
KNOX *+        FAIR      73  54  49 S3        30.19F
LA PORTE +     FAIR      73  55  53 CALM      30.21S
6HR MIN TEMP:  59; 6HR MAX TEMP:  73;

MONTICELLO +   FAIR      78  49  36 NE6       30.19S
6HR MIN TEMP:  55; 6HR MAX TEMP:  78;

RENSSELAER +   FAIR      75  41  29 NE3       30.20S
VALPARAISO     FAIR      78  54  43 CALM      30.20F
6HR MIN TEMP:  58; 6HR MAX TEMP:  78;


$$

LMZ046-743>745-231900-
SOUTHERN LAKE MICHIGAN

STATION/POSITION TIME  TEMP    WIND        PRES    WAVE
                       AIR SEA DIR/SP/G            HT
                 (UTC) (F)     (DEG/KT/KT) (MB)    (FT)
BURNS HARBOR     1740   58        CALM     1023.4F
MICHIGAN CITY    1740   58     330/  4/  5   N/A
5NW MICH CITY    1800   53 57  360/  6/  8   N/A     0

$$

INZ004-005-014>016-021>024-231900-
NORTH CENTRAL INDIANA

CITY           SKY/WX    TMP DP  RH WIND       PRES   REMARKS
ELKHART        FAIR      77  54  44 CALM      30.19F
GOSHEN         FAIR      75  58  55 VRB6      30.19F
6HR MIN TEMP:  54; 6HR MAX TEMP:  76;

LOGANSPORT +   FAIR      75  50  41 N3        30.19F
PERU/GRISSOM   FAIR      76  55  48 E5        30.18F
6HR MIN TEMP:  57; 6HR MAX TEMP:  76;

ROCHESTER +    FAIR      77  55  47 N6        30.19F
SOUTH BEND     FAIR      75  53  46 NW5       30.20F
6HR MIN TEMP:  53; 6HR MAX TEMP:  76;

WARSAW +       FAIR      73  57  56 NE7       30.19F

$$

INZ006>009-017-018-025>027-231900-
NORTHEAST INDIANA

CITY           SKY/WX    TMP DP  RH WIND       PRES   REMARKS
ANGOLA *+      FAIR      73  55  53 VRB3      30.19F
AUBURN +       FAIR      73  57  56 NE7       30.20F
FORT WAYNE     FAIR      76  54  46 N6        30.19F
6HR MIN TEMP:  58; 6HR MAX TEMP:  76;

HUNTINGTON +   FAIR      74  53  48 E7        30.18F
6HR MIN TEMP:  56; 6HR MAX TEMP:  74;

KENDALLVILLE + FAIR     N/A N/A N/A NE6       30.20F

$$

INZ028-029-035-036-043>045-051>053-231900-
WEST CENTRAL INDIANA

CITY           SKY/WX    TMP DP  RH WIND       PRES   REMARKS
CRAWFORDSVL +  FAIR      76  56  49 NE7       30.17F
6HR MIN TEMP:  55; 6HR MAX TEMP:  76;

GREENCASTLE +  FAIR      79  54  41 N7        30.17F
LAFAYETTE      FAIR      76  59  55 N8        30.18F
6HR MIN TEMP:  54; 6HR MAX TEMP:  76;

TERRE HAUTE    FAIR      81  59  47 NE7       30.16F
6HR MIN TEMP:  62; 6HR MAX TEMP:  81;


$$

INZ030>032-037>040-046>048-054>057-064-065-231900-
CENTRAL INDIANA

CITY           SKY/WX    TMP DP  RH WIND       PRES   REMARKS
COLUMBUS       SUNNY     77  55  47 E5        30.16F
FISHERS *+     FAIR      79  59  50 NE7       30.17F
FRANKFORT +    FAIR      80  56  43 E7        30.20F
6HR MIN TEMP:  59; 6HR MAX TEMP:  80;

GREENWOOD *+   FAIR      76  56  49 E7        30.17F
6HR MIN TEMP:  60; 6HR MAX TEMP:  77;

INDIANAPOLIS   FAIR      79  54  41 NE8       30.16F
6HR MIN TEMP:  62; 6HR MAX TEMP:  79;

-EAGLE CREEK   FAIR      78  54  43 CALM      30.16F
6HR MIN TEMP:  62; 6HR MAX TEMP:  78;

KOKOMO +       FAIR      77  56  48 N7        30.20F
6HR MIN TEMP:  59; 6HR MAX TEMP:  77;

MARION +       FAIR      73  54  50 CALM      30.19F
MT COMFORT *+  FAIR      77  59  53 NE9       30.17F
SHELBYVILLE    FAIR      80  56  43 NE9       30.16S
6HR MIN TEMP:  63; 6HR MAX TEMP:  80;

ZIONSVILLE +     N/A     76  54  46 E7        30.18F
6HR MIN TEMP:  57; 6HR MAX TEMP:  76;


$$

INZ033-034-041-042-049-050-058-059-231900-
EAST CENTRAL INDIANA

CITY           SKY/WX    TMP DP  RH WIND       PRES   REMARKS
MUNCIE         FAIR      79  52  38 NE10      30.18F
6HR MIN TEMP:  60; 6HR MAX TEMP:  79;

RICHMOND +     FAIR      72  57  60 NE8G18    30.19F

$$

INZ060-061-067>069-081>083-085>088-231900-
SOUTHWEST INDIANA

CITY           SKY/WX    TMP DP  RH WIND       PRES   REMARKS
EVANSVILLE     FAIR      83  61  47 NW6       30.13F
6HR MIN TEMP:  68; 6HR MAX TEMP:  83;

HUNTINGBURG +  FAIR      81  63  54 N8        30.14S
6HR MIN TEMP:  66; 6HR MAX TEMP:  81;

WASHINGTON +   FAIR      81  55  40 N9        30.14F
6HR MIN TEMP:  64; 6HR MAX TEMP:  81;


$$

INZ062-063-066-070>080-084-089>092-231900-
SOUTH CENTRAL AND SOUTHEAST INDIANA

CITY           SKY/WX    TMP DP  RH WIND       PRES   REMARKS
BATESVILLE +   SUNNY     77  59  53 VRB7G16   30.17S
BEDFORD +      FAIR      79  59  50 E6        30.15F
BLOOMINGTON    FAIR      79  60  52 VRB6      30.16F
6HR MIN TEMP:  64; 6HR MAX TEMP:  80;

FRENCH LICK *+ FAIR      79  48  34 E10       30.15S
MADISON *+     FAIR      79  55  44 NE6       30.16F
NORTH VERNON + FAIR      75  61  60 NE3       30.15F
SEYMOUR +      FAIR      81  59  47 E7        30.15F

$$




USA.gov is the U.S. government's official web portal to all federal, state and local government web resources and services.